User: anonymous   Login
Location: Cincinnati Observatory Center
(39.1389°N, 84.4225°W)
Time: 19:15:32
(UTC-05:00)
Language:

COSMOS 2428 - Orbit

View from above orbital plane
View from above orbital plane
View from above satellite
View from above satellite

Ground track
Ground track

The orbit data is extracted from the following two-line orbital elements,

1 31792U 07029A   14353.80312638  .00000353  00000-0  21677-3 0  2852
2 31792 070.9778 160.7235 0011781 221.2673 231.7030 14.12498749385525
Epoch (UTC): 19 December 2014 19:16:30
Eccentricity: 0.0011781
inclination: 70.9778°
perigee height: 842 km
apogee height: 859 km
right ascension of ascending node: 160.7235°
argument of perigee: 221.2673°
revolutions per day: 14.12498749
mean anomaly at epoch: 231.7030°
orbit number at epoch: 38552

The dashed part of the orbit path shows where the satellite is in the earth's shadow,  

DLR